Weather History for Omaha Offutt, NE

Change the Weather History Date:

Tuesday, April 30, 2013

  Actual Average Record
Temperature  
Mean Temperature 68 °F -  
Max Temperature 76 °F 66 °F 87 °F (2007)
Min Temperature 60 °F 46 °F 33 °F (2005)
Cooling Degree Days 4    
Growing Degree Days 18 (Base 50)    
Moisture  
Dew Point 50 °F    
Average Humidity 50    
Maximum Humidity 61    
Minimum Humidity 40    
Precipitation  
Precipitation 0.00 in - - ()
Sea Level Pressure  
Sea Level Pressure 29.70 in    
Wind  
Wind Speed 12 mph (NNW)    
Max Wind Speed 16 mph    
Max Gust Speed 23 mph    
Visibility 10 miles    
Events Rain , Thunderstorm    
Averages and records for this station are not official NWS values.
T = Trace of Precipitation, MM = Missing Value Source: NWS Daily Summary

Daily Weather History Graph

Daily Weather History Graph

Search for Another Location

Airport:

Trip Planner

Search our weather history database for the weather conditions in past years. The results will help you decide how hot, cold, wet, or windy it might be!

Date:

Astronomy

Apr. 30, 2013 Rise Set
Actual Time 6:22 AM CDT 8:19 PM CDT
Civil Twilight 5:52 AM CDT 8:49 PM CDT
Nautical Twilight 5:16 AM CDT 9:26 PM CDT
Astronomical Twilight 4:36 AM CDT 10:06 PM CDT
Moon 12:44 AM CDT (4/30) 10:51 AM CDT (4/30)
Length of Visible Light 14h 57m
Length of Day
13h 57m
Waning Gibbous, 70% of the Moon is Illuminated
Apr 30
Waning Gibbous
May 2
Last Quarter
May 9
New
May 17
First Quarter
May 24
Full

Hourly Weather History & Observations

Time (CDT) Temp. Dew Point Humidity Pressure Visibility Wind Dir Wind Speed Gust Speed Precip Events Conditions
12:58 AM 74.1 °F 55.9 °F 53% 29.50 in 10.0 mi South 13.8 mph - N/A   Clear
1:58 AM 71.6 °F 57.4 °F 61% 29.50 in 10.0 mi SSE 16.1 mph 23.0 mph N/A   Clear
2:58 AM 70.0 °F 54.3 °F 57% 29.50 in 10.0 mi South 11.5 mph - N/A   Clear
3:58 AM 69.4 °F 52.7 °F 55% 29.51 in 10.0 mi South 12.7 mph 23.0 mph N/A   Clear
4:58 AM 72.0 °F 50.5 °F 47% 29.52 in 10.0 mi South 9.2 mph 20.7 mph N/A   Clear
5:58 AM 68.9 °F 50.4 °F 52% 29.56 in 10.0 mi South 11.5 mph 16.1 mph N/A   Clear
6:58 AM 69.3 °F 50.2 °F 51% 29.58 in 10.0 mi South 10.4 mph - N/A   Partly Cloudy
7:58 AM 69.6 °F 51.4 °F 52% 29.64 in 10.0 mi SW 11.5 mph - N/A   Partly Cloudy
8:58 AM 71.8 °F 52.3 °F 50% 29.65 in 10.0 mi SSW 8.1 mph - N/A   Clear
9:58 AM 74.1 °F 53.8 °F 49% 29.67 in 10.0 mi WSW 13.8 mph - N/A   Clear
9:59 AM 73.4 °F 53.6 °F 50% 29.67 in 10.0 mi West 11.5 mph 21.9 mph N/A   Clear
10:01 AM 73.4 °F 53.6 °F 50% 29.67 in 10.0 mi WNW 16.1 mph 21.9 mph N/A   Clear
10:58 AM 71.1 °F 52.2 °F 51% 29.68 in 10.0 mi NNW 11.5 mph - N/A   Clear
11:58 AM 72.5 °F 52.7 °F 50% 29.68 in 10.0 mi NNW 6.9 mph - N/A   Scattered Clouds
12:58 PM 73.4 °F 51.4 °F 46% 29.69 in 10.0 mi NNW 9.2 mph - N/A   Partly Cloudy
1:58 PM 73.8 °F 52.3 °F 47% 29.69 in 10.0 mi NW 9.2 mph - N/A   Scattered Clouds
2:58 PM 76.3 °F 53.8 °F 45% 29.69 in 10.0 mi NW 13.8 mph - N/A   Partly Cloudy
3:58 PM 75.0 °F 52.5 °F 45% 29.69 in 10.0 mi NNW 11.5 mph - N/A   Clear
4:58 PM 75.9 °F 52.0 °F 43% 29.70 in 10.0 mi NNW 12.7 mph 19.6 mph N/A   Partly Cloudy
5:58 PM 72.1 °F 47.8 °F 42% 29.73 in 10.0 mi North 15.0 mph 23.0 mph N/A   Partly Cloudy
6:58 PM 70.2 °F 45.7 °F 41% 29.75 in 10.0 mi North 10.4 mph - N/A   Mostly Cloudy
7:51 PM 69.8 °F 44.6 °F 40% 29.77 in 10.0 mi NNE 12.7 mph - N/A Rain Light Rain
7:58 PM 68.7 °F 45.7 °F 44% 29.77 in 10.0 mi North 12.7 mph - 0.00 in Rain Light Rain
8:05 PM 68.0 °F 44.6 °F 43% 29.77 in 10.0 mi NNE 12.7 mph - N/A   Scattered Clouds
8:08 PM 68.0 °F 44.6 °F 43% 29.77 in 10.0 mi NNE 12.7 mph - N/A Thunderstorm Thunderstorm
8:12 PM 68.0 °F 44.6 °F 43% 29.78 in 10.0 mi North 15.0 mph 19.6 mph N/A Rain , Thunderstorm Light Thunderstorms and Rain
8:17 PM 68.0 °F 46.4 °F 46% 29.79 in 10.0 mi North 9.2 mph 19.6 mph N/A Rain , Thunderstorm Light Thunderstorms and Rain
8:21 PM 68.0 °F 46.4 °F 46% 29.79 in 10.0 mi NNE 11.5 mph - N/A Rain Light Rain
8:43 PM 66.2 °F 48.2 °F 52% 29.78 in 10.0 mi NNE 9.2 mph - N/A Rain , Thunderstorm Light Thunderstorms and Rain
8:52 PM 64.4 °F 48.2 °F 56% 29.79 in 10.0 mi NE 6.9 mph - N/A Rain Light Rain
8:53 PM 64.4 °F 48.2 °F 56% 29.79 in 10.0 mi NE 5.8 mph - N/A   Partly Cloudy
8:58 PM 63.7 °F 49.3 °F 59% 29.81 in 10.0 mi WNW 5.8 mph - 0.00 in Thunderstorm Scattered Clouds
9:04 PM 64.4 °F 46.4 °F 52% 29.81 in 10.0 mi North 12.7 mph - N/A   Mostly Cloudy
9:58 PM 63.0 °F 45.7 °F 53% 29.83 in 10.0 mi NNE 15.0 mph 23.0 mph N/A   Mostly Cloudy
10:58 PM 61.0 °F 46.6 °F 59% 29.83 in 10.0 mi NE 16.1 mph 23.0 mph N/A   Overcast
11:58 PM 60.3 °F 46.4 °F 60% 29.88 in 10.0 mi NNE 13.8 mph - N/A   Overcast